Location: Poughquag
(41.6090°N, 73.6820°W)
Time: 11:38:12
(UTC-04:00)

A-11 Canister half - Pass Details

Date: 07 June 2020
Orbit: 1527 x 1682 km, 47.3° (Epoch: 06 July)

Event Time Altitude Azimuth Distance (km) Brightness Sun altitude
Rises 08:00:20 0° 264° (W) 4,676 11.0 27.1°
Reaches altitude 10° 08:03:25 10° 267° (W) 3,692 10.5 27.6°
Maximum altitude 08:12:40 66° 349° (N) 1,654 9.6 29.4°
Drops below altitude 10° 08:22:04 10° 72° (ENE) 3,751 12.5 31.1°
Sets 08:25:14 0° 75° (ENE) 4,754 12.7 31.7°
